Regional Weather Roundup
Issued by NWS Albany, NY

Home | Current Version | Previous Version | Text Only | Print | Product List | Glossary On
Versions: 1 2 3 4 5 6 7 8 9 10 11 12 13 14 15 16 17 18 19 20 21 22 23 24 25 26 27 28 29 30 31 32 33 34 35 36 37 38 39 40 41 42 43 44 45 46 47 48 49 50
759
ASUS41 KALY 030510
RWRALY

NEW YORK STATE HOURLY WEATHER ROUNDUP
NATIONAL WEATHER SERVICE ALBANY NY
100 AM EDT TUE MAY 03 2016

NOTE: "FAIR" INDICATES FEW OR NO CLOUDS BELOW 12,000 FEET WITH NO
SIGNIFICANT WEATHER AND/OR NO OBSTRUCTIONS TO VISIBILITY.

NYZ032-033-038>043-046>054-057>066-NYZ062>081-082-084-030600-
EAST


CITY           SKY/WX    TMP DP  RH WIND       PRES   REMARKS
ALBANY         DRIZZLE   49  46  90 NW3       29.95S
GLENS FALLS    CLOUDY    46  43  89 NE6       29.95S
POUGHKEEPSIE   RAIN      52  49  89 CALM      29.93F FOG
NEWBURGH       LGT RAIN  52  52 100 E7        29.94F FOG
MONTGOMERY     LGT RAIN  52  51  97 CALM      29.94R
WHITE PLAINS   DRIZZLE   52  51  97 CALM      29.93R
ISLIP          LGT RAIN  52  50  93 CALM      29.92F
NEW YORK CITY  LGT RAIN  55  51  86 E6        29.91F
CENTRAL PARK   LGT RAIN  55  53  93 CALM      29.95F FOG
$$

NYZ005>009-017-018-044>046-055-056-030600-
CENTRAL


CITY           SKY/WX    TMP DP  RH WIND       PRES   REMARKS
FULTON         CLOUDY    41  39  93 CALM      29.98R FOG
SYRACUSE       CLOUDY    43  42  97 SW3       29.97R
ROME           CLOUDY    44  44 100 CALM      29.97F
ELMIRA         CLOUDY    46  42  86 N3        29.96F
BINGHAMTON     LGT RAIN  43  39  86 N3        29.94S
MONTICELLO     CLOUDY    46  46 100 CALM      29.95R
$$

NYZ026>034-041>043-087-030600-
NORTH


CITY           SKY/WX    TMP DP  RH WIND       PRES   REMARKS
WATERTOWN      FOG       35  35 100 CALM      29.96F VSB<1/4
FORT DRUM      NOT AVBL
MASSENA        CLOUDY    41  39  93 CALM      29.99F FOG
SARANAC LAKE   CLOUDY    40  37  89 CALM      29.93S
PLATTSBURGH    NOT AVBL
$$

NYZ001>004-010>016-019>021-085-030600-
WEST


CITY           SKY/WX    TMP DP  RH WIND       PRES   REMARKS
NIAGARA FALLS  PTCLDY    40  36  86 CALM      29.96R
BUFFALO        PTCLDY    42  39  89 CALM      29.96R
DUNKIRK        PTCLDY    39  38  96 S3        29.95F
JAMESTOWN      CLOUDY    45  39  81 CALM      29.92S
WELLSVILLE     FOG       44  42  93 E5        29.94S VSB 1/2
ROCHESTER      CLOUDY    41  39  93 CALM      29.98R
PENN YAN       CLOUDY    41  39  93 CALM      29.97F
$$

             KEY
       WCI = WIND CHILL INDEX
       VSB = VISIBILITY
       HX  = HEAT INDEX
$$




USA.gov is the U.S. government's official web portal to all federal, state and local government web resources and services.